Location: Cheb
(50.0670°N, 12.3670°E)
Time: 00:35:03
(UTC+02:00)

ISS - Pass Details

Date: 27 March 2019
Orbit: 408 x 410 km, 51.6° (Epoch: 18 April)

Event Time Altitude Azimuth Distance (km) Brightness Sun altitude
Rises 21:45:04 0° 283° (WNW) 2,338 0.9 -28.1°
Reaches altitude 10° 21:47:09 10° 285° (WNW) 1,476 -0.3 -28.3°
Enters shadow 21:47:48 15° 286° (WNW) 1,218 -0.8 -28.4°
